Date,TemperatureHighF,TemperatureAvgF,TemperatureLowF,DewpointHighF,DewpointAvgF,DewpointLowF,HumidityHigh,HumidityAvg,HumidityLow,PressureMaxIn,PressureMinIn,WindSpeedMaxMPH,WindSpeedAvgMPH,GustSpeedMaxMPH,PrecipitationSumIn
2013-9-1,95.2,85.8,77.5,72.9,70.8,68.4,76,62,45,29.98,29.87,15,2,0,0.00
2013-9-2,93.7,84.0,76.8,74.0,72.0,68.4,82,68,49,30.00,29.89,14,2,0,0.00
2013-9-3,90.7,83.1,73.9,76.4,72.9,69.2,86,72,58,30.03,29.89,18,1,0,0.00
2013-9-4,92.1,82.4,72.0,74.2,70.6,67.4,90,70,46,30.10,29.98,14,1,0,0.00
2013-9-5,93.9,83.7,73.2,74.8,71.4,67.1,88,68,44,30.14,30.03,13,1,0,0.00
2013-9-6,93.6,83.5,73.9,74.3,71.7,69.3,87,69,49,30.14,30.01,8,1,0,0.00
2013-9-7,91.6,83.0,73.2,71.4,69.2,64.3,86,65,41,30.09,29.97,14,0,0,0.00
2013-9-8,92.1,82.8,71.4,70.7,67.7,65.5,84,62,43,30.04,29.95,9,1,0,0.00
2013-9-9,94.3,83.5,71.2,70.0,67.7,65.1,82,61,41,30.09,29.99,10,1,0,0.00
2013-9-10,94.1,83.1,72.9,71.6,69.1,67.1,83,64,45,30.15,30.04,14,1,0,0.00
2013-9-11,92.8,82.6,72.5,70.9,68.7,66.6,88,65,44,30.17,30.05,12,1,0,0.00
2013-9-12,91.9,82.5,70.9,70.8,66.4,62.6,86,60,39,30.09,29.93,11,1,0,0.00
2013-9-13,93.4,82.2,75.0,72.2,68.7,64.8,81,65,43,29.97,29.86,12,1,0,0.00
2013-9-14,86.9,76.4,66.0,68.4,61.9,58.3,83,62,44,30.01,29.92,10,3,0,0.00
2013-9-15,92.1,80.1,66.4,67.6,63.3,57.0,72,58,44,30.10,30.01,14,1,0,0.00
2013-9-16,91.2,82.4,73.2,71.7,68.1,65.6,83,64,44,30.12,30.02,14,2,0,0.00
2013-9-17,91.8,81.8,70.9,66.6,64.3,61.5,80,58,38,30.12,29.99,17,1,0,0.00
2013-9-18,91.8,80.9,73.6,71.4,67.4,61.7,78,65,48,30.11,30.00,13,1,0,0.00
2013-9-19,92.3,79.3,71.1,74.8,70.3,67.0,88,75,50,30.08,29.97,16,1,0,0.00
2013-9-20,91.2,80.1,74.8,75.5,72.4,70.2,89,78,56,30.03,29.83,12,1,0,0.00
2013-9-21,76.6,71.4,69.4,73.0,68.4,65.0,93,90,86,29.84,29.79,16,3,0,0.00
2013-9-22,76.8,67.9,59.4,65.0,57.3,53.3,88,70,46,29.89,29.80,16,5,0,0.00
2013-9-23,86.2,73.0,59.5,70.8,63.6,54.0,83,73,58,29.89,29.82,12,1,0,0.00
2013-9-24,84.0,75.3,70.7,76.3,71.4,67.6,92,88,76,29.88,29.80,10,1,0,0.00
2013-9-25,83.1,75.7,69.4,69.8,65.1,60.5,92,71,47,29.86,29.80,17,1,0,0.00
2013-9-26,83.5,74.0,63.9,65.1,62.7,59.6,87,70,49,29.98,29.85,12,1,0,0.00
2013-9-27,84.9,75.8,68.7,68.5,66.4,63.6,91,74,54,30.06,29.97,15,1,0,0.00
2013-9-28,84.0,75.2,67.3,65.4,62.7,59.2,81,66,47,30.11,30.01,14,1,0,0.00
2013-9-29,78.4,71.5,65.8,68.2,64.4,59.1,85,78,69,30.07,29.97,7,0,0,0.00
2013-9-30,85.1,73.8,67.1,73.0,67.9,62.7,90,82,64,29.99,29.91,7,0,0,0.00